[[{"header":{"parameterUnit":"m.s-1","parameterCategory":1,"la1":30.2991,"la2":30.254,"lo1":-89.0895,"lo2":-89.0444,"dy":0.0017,"dx":0.0017,"nx":28,"ny":28,"refTime":"2023-10-24T21:00:00:Z","depth":0,"parameterNumber":2,"parameterNumberName":"U-component_of_WINDS"},"data":[0,0,0,0,0,0,0,0,0,0,0,0,0,0,0,0,0,0,0,0,0,0,0,0,0,0,0,0,0,0,0,0,0,0,0,0,0,0,0,0,0,0,0,0,0,0,0,0,0,0,0,0,0,0,0,0,0,0,-6.1585,-6.1586,0,-6.1613,-6.1613,-6.1614,-6.1473,-6.1469,-6.1465,-6.1461,-6.1488,-6.1492,-6.1497,0,0,0,0,0,0,0,0,0,0,0,0,0,-6.1411,-6.1415,-6.1585,-6.1586,-6.1586,-6.1613,-6.1613,-6.1614,-6.1474,-6.1469,-6.1464,-6.146,-6.1487,-6.1492,-6.1497,0,0,0,0,0,0,0,0,0,0,0,0,0,-6.1468,-6.1416,-6.1585,-6.152,-6.1514,-6.1613,-6.1613,-6.1614,-6.1475,-6.1469,-6.1463,-6.1457,-6.1485,-6.1491,-6.1498,-6.1661,0,0,-6.1519,-6.1521,0,0,0,0,0,0,0,0,-6.1464,-6.1474,-6.1529,-6.1524,-6.1518,-6.1533,-6.1561,-6.1629,-6.1477,-6.149,-6.1461,-6.1454,-6.1508,-6.1512,-6.1531,-6.1662,-6.1663,-6.1519,-6.1523,-6.1526,-6.1528,0,0,0,0,0,0,0,-6.1461,-6.1472,-6.1596,-6.153,-6.1523,-6.1489,-6.149,-6.1574,-6.1532,-6.1488,-6.1478,-6.1483,-6.1504,-6.1525,-6.153,-6.1664,-6.1519,-6.1525,-6.1529,-6.1532,-6.1931,-6.1937,0,0,0,0,0,0,-6.1466,-6.147,-6.1595,-6.1597,-6.1476,-6.1497,-6.1498,-6.1535,-6.1531,-6.1525,-6.1489,-6.1477,-6.1516,-6.1523,-6.1531,-6.1721,-6.1526,-6.1532,-6.1536,-6.1924,-6.1932,-6.1939,0,0,0,0,0,0,-6.1463,-6.1478,-6.1594,-6.1531,-6.1543,-6.1506,-6.1548,-6.1538,-6.1559,-6.1531,-6.1523,-6.1517,-6.1512,-6.1521,-6.163,-6.172,-6.1535,-6.1541,-6.1916,-6.1927,-6.1936,-6.2102,0,0,0,0,0,0,-6.1458,-6.1478,-6.1539,-6.1533,-6.1547,-6.1693,-6.1554,-6.1543,-6.1571,-6.1556,-6.1556,-6.1551,-6.1508,-6.1621,-6.1637,-6.1726,-6.1547,-6.1908,-6.1921,-6.1933,-6.2089,-6.2117,-6.2141,0,0,0,0,0,-6.1452,-6.1584,-6.1543,-6.1559,-6.1623,-6.1698,-6.1706,-6.1654,-6.1579,-6.164,-6.1623,-6.1551,-6.1708,-6.1633,-6.165,-6.1742,-6.1902,-6.1917,-6.1932,-6.2077,-6.2111,-6.214,0,0,0,0,0,0,-6.16,-6.1582,-6.1536,-6.167,-6.1687,-6.1674,-6.1749,-6.1692,-6.173,-6.1714,-6.1649,-6.165,-6.177,-6.1767,-6.1683,-6.19,-6.1792,-6.1811,-6.1897,-6.1929,-6.1955,-6.1951,-6.1552,0,0,0,0,0,-6.1649,-6.1712,-6.1693,-6.1813,-6.1824,-6.1787,-6.1817,-6.1777,-6.1791,-6.1797,-6.1788,-6.1804,-6.1857,-6.1894,-6.1941,-6.2089,-6.2087,-6.2161,-6.2187,-6.2209,-6.2225,-6.2303,-6.2336,-6.1988,-6.1988,-6.1987,0,0,-6.1749,-6.1747,-6.179,-6.1843,-6.1851,-6.1918,-6.1793,-6.1869,-6.1917,-6.1808,-6.191,-6.1905,-6.1919,-6.2048,-6.2104,-6.2049,-6.2321,-6.2228,-6.2245,-6.2249,-6.2322,-6.2355,-6.2384,-6.1998,-6.1996,-6.1994,0,0,-6.1964,-6.197,-6.2071,-6.2083,-6.2098,-6.2072,-6.2097,-6.2094,-6.2086,-6.2188,-6.2108,-6.2166,-6.2259,-6.2272,-6.2291,-6.2517,-6.2452,-6.2535,-6.267,-6.2747,-6.2774,-6.2798,-6.2878,-6.2907,-6.2552,-6.2552,-6.2553,0,-6.2086,-6.2184,-6.213,-6.2212,-6.2237,-6.2144,-6.2245,-6.2259,-6.2289,-6.2309,-6.2247,-6.2363,-6.2367,-6.2498,-6.2553,-6.2572,-6.2598,-6.2532,-6.2775,-6.2798,-6.282,-6.2895,-6.2925,-6.2562,-6.2561,-6.256,-6.2559,0,-6.2333,-6.2403,-6.2482,-6.2514,-6.2549,-6.2641,-6.26,-6.2642,-6.26,-6.2582,-6.2687,-6.2688,-6.2735,-6.2764,-6.2722,-6.289,-6.2855,-6.2786,-6.2675,-6.2864,-6.2933,-6.2962,-6.2576,-6.2573,-6.257,-6.2567,0,0,-6.2638,-6.2642,-6.2672,-6.2686,-6.2697,-6.275,-6.2839,-6.2885,-6.2922,-6.2947,-6.3019,-6.3102,-6.3038,-6.3061,-6.3021,-6.3089,-6.3267,-6.3011,-6.301,-6.3057,-6.3451,-6.3501,-6.3536,-6.3226,-6.3231,-6.3236,-6.345,0,-6.2848,-6.2998,-6.2953,-6.3104,-6.3168,-6.3083,-6.3159,-6.3175,-6.3162,-6.3214,-6.3198,-6.3257,-6.317,-6.3183,-6.3247,-6.3232,-6.3345,-6.3217,-6.3291,-6.3294,-6.3287,-6.3572,-6.3625,-6.3826,-6.3476,-6.3481,-6.3484,0,-6.3111,-6.3148,-6.3306,-6.3309,-6.3334,-6.3404,-6.3444,-6.3495,-6.3512,-6.3497,-6.3524,-6.3471,-6.3558,-6.3451,-6.357,-6.3483,-6.3512,-6.351,-6.3517,-6.3519,-6.3398,-6.358,-6.3889,-6.3919,-6.3527,-6.3523,-6.352,0,-6.3316,-6.3406,-6.3511,-6.3527,-6.3533,-6.3584,-6.3589,-6.36,-6.3632,-6.3667,-6.3687,-6.3733,-6.3757,-6.3794,-6.3755,-6.368,-6.388,-6.3769,-6.3869,-6.387,-6.3911,-6.3909,-6.4227,-6.3935,-6.3935,-6.3934,-6.3934,0,-6.3553,-6.3653,-6.3604,-6.3668,-6.3778,-6.3727,-6.3837,-6.3832,-6.3844,-6.3906,-6.3836,-6.3897,-6.3843,-6.3899,-6.387,-6.3972,-6.3984,-6.3974,-6.3965,-6.3979,-6.398,-6.3994,-6.3978,-6.3942,-6.394,-6.3939,-6.3938,0,-6.3798,-6.377,-6.3879,-6.3878,-6.388,-6.3961,-6.3959,-6.4019,-6.4002,-6.4082,-6.4098,-6.4071,-6.4134,-6.41,-6.4164,-6.4144,-6.4277,-6.425,-6.4271,-6.4263,-6.4364,-6.4355,-6.4701,-6.4743,-6.4427,-6.443,-6.4432,0,-6.3949,-6.4024,-6.4032,-6.4069,-6.4079,-6.4141,-6.4173,-6.4128,-6.4164,-6.4191,-6.4248,-6.4305,-6.4348,-6.4452,-6.4438,-6.4487,-6.4459,-6.4577,-6.4465,-6.4478,-6.4458,-6.4453,-6.446,-6.4598,-6.4602,-6.4605,-6.4607,0,-6.4221,-6.4204,-6.4254,-6.4301,-6.4342,-6.4376,-6.4404,-6.4438,-6.4393,-6.4439,-6.4502,-6.4536,-6.4603,-6.466,-6.4703,-6.4707,-6.4651,-6.4644,-6.4669,-6.4682,-6.4691,-6.4686,-6.433,-6.4635,-6.4632,-6.463,-6.4628,-6.4627,-6.4422,-6.4485,-6.45,-6.4559,-6.4576,-6.4605,-6.4661,-6.4653,-6.4705,-6.4756,-6.4727,-6.4802,-6.4819,-6.4871,-6.4884,-6.4942,-6.4895,-6.4932,-6.4941,-6.495,-6.4963,-6.4685,-6.495,-6.4949,-6.4949,-6.4948,-6.4947,0,-6.4688,-6.4695,-6.475,-6.4792,-6.4839,-6.4784,-6.4813,-6.4855,-6.4922,-6.4944,-6.4988,-6.5062,-6.5118,-6.5111,-6.5162,-6.521,-6.5185,-6.5225,-6.5219,-6.5221,-6.5003,-6.4975,-6.5244,-6.5244,-6.5244,-6.5244,-6.5244,-6.5244,-6.4831,-6.4935,-6.4921,-6.5033,-6.5038,-6.5112,-6.5133,-6.516,-6.5177,-6.5263,-6.5309,-6.5305,-6.5315,-6.5367,-6.5417,-6.5413,-6.5434,-6.5483,-6.547,-6.5266,-6.5236,-6.5208,-6.5181,-6.5489,-6.5489,-6.5682,-6.5684,-6.5685]},{"header":{"parameterUnit":"m.s-1","parameterCategory":1,"la1":30.2991,"la2":30.254,"lo1":-89.0895,"lo2":-89.0444,"dy":0.0017,"dx":0.0017,"nx":28,"ny":28,"refTime":"2023-10-24T21:00:00:Z","depth":0,"parameterNumber":3,"parameterNumberName":"V-component_of_WINDS"},"data":[0,0,0,0,0,0,0,0,0,0,0,0,0,0,0,0,0,0,0,0,0,0,0,0,0,0,0,0,0,0,0,0,0,0,0,0,0,0,0,0,0,0,0,0,0,0,0,0,0,0,0,0,0,0,0,0,0,0,1.724,1.724,0,1.7261,1.7261,1.7262,1.7231,1.723,1.7229,1.7228,1.7248,1.7249,1.7251,0,0,0,0,0,0,0,0,0,0,0,0,0,1.7173,1.7175,1.724,1.724,1.724,1.7261,1.7261,1.7262,1.7231,1.723,1.7229,1.7228,1.7247,1.7249,1.7251,0,0,0,0,0,0,0,0,0,0,0,0,0,1.7199,1.7175,1.724,1.7228,1.7227,1.7261,1.7261,1.7262,1.7232,1.723,1.7228,1.7227,1.7247,1.7249,1.7251,1.7297,0,0,1.7258,1.7259,0,0,0,0,0,0,0,0,1.7198,1.7202,1.7229,1.7229,1.7228,1.7242,1.7245,1.7274,1.7232,1.723,1.7228,1.7226,1.7247,1.7249,1.7257,1.7298,1.7299,1.7258,1.726,1.7261,1.7261,0,0,0,0,0,0,0,1.7196,1.7201,1.7248,1.723,1.7229,1.7222,1.7223,1.725,1.7247,1.723,1.7228,1.7231,1.7246,1.7255,1.7257,1.73,1.7258,1.726,1.7262,1.7263,1.7383,1.7385,0,0,0,0,0,0,1.7196,1.7199,1.7248,1.7249,1.7209,1.7224,1.7226,1.7239,1.7247,1.7246,1.7232,1.7229,1.7251,1.7254,1.7257,1.7314,1.7261,1.7263,1.7264,1.7381,1.7384,1.7386,0,0,0,0,0,0,1.7194,1.72,1.7247,1.7224,1.7229,1.7227,1.7242,1.724,1.7248,1.7248,1.7248,1.7241,1.725,1.7254,1.7289,1.7314,1.7264,1.7266,1.7379,1.7382,1.7385,1.7426,0,0,0,0,0,0,1.7193,1.72,1.7217,1.7224,1.723,1.7277,1.7243,1.7242,1.7253,1.7249,1.7257,1.7256,1.7249,1.7285,1.7291,1.7316,1.7268,1.7377,1.738,1.7384,1.7422,1.743,1.7436,0,0,0,0,0,1.719,1.7227,1.7218,1.7224,1.7252,1.7279,1.7282,1.7274,1.7255,1.7272,1.7273,1.7256,1.7311,1.7289,1.7295,1.7321,1.7375,1.7379,1.7383,1.7419,1.7428,1.7436,0,0,0,0,0,0,1.7221,1.7227,1.7218,1.7258,1.7268,1.7274,1.7295,1.7283,1.7299,1.7295,1.7283,1.7285,1.7323,1.7325,1.7301,1.7368,1.734,1.7345,1.7365,1.7373,1.738,1.7379,1.727,0,0,0,0,0,1.7233,1.7255,1.7259,1.7294,1.73,1.7297,1.7308,1.7301,1.7311,1.7315,1.7318,1.7328,1.7348,1.7361,1.7378,1.7423,1.7425,1.7444,1.7451,1.7457,1.7462,1.7487,1.7496,1.7399,1.7399,1.7399,0,0,1.7257,1.7263,1.7277,1.73,1.7307,1.7331,1.7301,1.7325,1.7343,1.7319,1.7352,1.7355,1.7365,1.7406,1.7423,1.7409,1.7489,1.7462,1.7467,1.7468,1.7493,1.7502,1.751,1.7402,1.7401,1.7401,0,0,1.7313,1.7319,1.735,1.7359,1.7371,1.7369,1.7377,1.7385,1.7386,1.742,1.7403,1.7423,1.7457,1.7466,1.7475,1.7538,1.7523,1.7544,1.758,1.7605,1.7613,1.762,1.7643,1.7652,1.7549,1.7549,1.7549,0,1.734,1.7375,1.7367,1.7394,1.7406,1.7387,1.7419,1.7427,1.7444,1.7453,1.7437,1.7481,1.7486,1.7529,1.7545,1.7553,1.7562,1.7542,1.7612,1.7619,1.7625,1.7648,1.7657,1.7551,1.7551,1.7551,1.7551,0,1.7409,1.7434,1.7457,1.7476,1.749,1.752,1.7517,1.7532,1.7525,1.7525,1.7561,1.7568,1.7588,1.7597,1.7589,1.764,1.7631,1.7614,1.7585,1.7637,1.7658,1.7667,1.7555,1.7554,1.7553,1.7553,0,0,1.7482,1.75,1.7508,1.7518,1.7532,1.755,1.758,1.7601,1.7615,1.7628,1.7653,1.7683,1.7669,1.7679,1.7672,1.7694,1.7746,1.7675,1.7675,1.7689,1.7804,1.7817,1.7827,1.7737,1.7739,1.774,1.7804,0,1.7539,1.7591,1.7586,1.7635,1.7659,1.7643,1.7669,1.768,1.7682,1.7703,1.7704,1.7727,1.7705,1.7712,1.7733,1.7735,1.7769,1.7731,1.7761,1.7762,1.7759,1.7838,1.7851,1.7911,1.7812,1.7813,1.7814,0,1.7611,1.7629,1.7681,1.7694,1.7704,1.7727,1.7747,1.7767,1.778,1.7781,1.7794,1.7785,1.7815,1.7787,1.7829,1.7803,1.7815,1.7819,1.7821,1.7823,1.7791,1.7843,1.793,1.7939,1.7827,1.7826,1.7825,0,1.7661,1.7698,1.7735,1.7743,1.7759,1.7776,1.7783,1.7795,1.7809,1.7827,1.7836,1.7857,1.7868,1.7885,1.7881,1.7861,1.7926,1.7896,1.7927,1.7927,1.7941,1.794,1.8031,1.7948,1.7948,1.7948,1.7948,0,1.7724,1.7757,1.7758,1.778,1.7817,1.7812,1.7849,1.7854,1.7865,1.7889,1.7876,1.7899,1.7893,1.7915,1.7913,1.795,1.7955,1.7956,1.7955,1.7957,1.7957,1.7965,1.7961,1.795,1.795,1.7949,1.7949,0,1.7785,1.7787,1.7826,1.7839,1.7843,1.787,1.7881,1.7903,1.7905,1.7935,1.7942,1.7945,1.7971,1.797,1.7999,1.7998,1.8043,1.8037,1.8039,1.8038,1.8069,1.8067,1.8168,1.8182,1.809,1.8091,1.8092,0,1.7826,1.7851,1.7868,1.7884,1.7893,1.7917,1.7933,1.7929,1.7946,1.7965,1.7985,1.801,1.803,1.8073,1.8077,1.81,1.8095,1.8129,1.8098,1.81,1.8097,1.8095,1.8098,1.8135,1.8136,1.8137,1.8138,0,1.7898,1.7899,1.7921,1.7945,1.7964,1.7982,1.7998,1.8012,1.8011,1.803,1.8057,1.8073,1.8105,1.813,1.8153,1.816,1.8149,1.8148,1.8156,1.8159,1.8159,1.8161,1.8056,1.8145,1.8144,1.8144,1.8143,1.8143,1.7951,1.7973,1.799,1.8016,1.8029,1.8046,1.8068,1.8074,1.8097,1.8123,1.812,1.8151,1.8166,1.8196,1.8206,1.823,1.8218,1.823,1.8233,1.8236,1.824,1.8156,1.8234,1.8234,1.8234,1.8233,1.8233,0,1.8023,1.8034,1.8058,1.8083,1.8105,1.8094,1.8113,1.8131,1.8159,1.8175,1.8196,1.8229,1.8255,1.8263,1.8288,1.8306,1.8302,1.8313,1.8311,1.8314,1.8249,1.824,1.8316,1.8316,1.8316,1.8316,1.8316,1.8316,1.8063,1.8102,1.8105,1.8151,1.8161,1.8192,1.8204,1.822,1.8233,1.8271,1.8293,1.8299,1.8312,1.8338,1.8362,1.8364,1.8374,1.8387,1.8387,1.8326,1.8318,1.831,1.8301,1.8389,1.8389,1.8449,1.845,1.845]}]]